Regional Weather Roundup
Issued by NWS

Home | Current Version | Previous Version | Text Only | Print | Product List | Glossary On
Versions: 1 2 3 4 5 6 7 8 9 10 11 12 13 14 15 16 17 18 19 20 21 22 23 24 25 26 27 28 29 30 31 32 33 34 35 36 37 38 39 40 41 42 43 44 45 46 47 48 49 50
000
ASHW40 PHFO 301912
RWRHI

WEATHER ROUNDUP FOR HAWAII
NATIONAL WEATHER SERVICE HONOLULU HI
900 AM HST SAT JUL 30 2016

THIS IS AN AUTOMATED REPORT THAT HAS NOT BEEN QUALITY CONTROLLED.

NOTE..."FAIR" INDICATES FEW OR NO CLOUDS BELOW 12,000 FEET WITH NO
SIGNIFICANT WEATHER AND/OR OBSTRUCTIONS TO VISIBILITY.

* - THESE SITES REPORT LIMITED FIELDS

HIZ001>004-302000-
KAUAI-NIIHAU-

CITY           SKY/WX    TMP DP  RH WIND       PRES   REMARKS
LIHUE APT      CLOUDY    79  71  76 NE18      30.04R
PORT ALLEN*      N/A     82 N/A N/A NE13G18     N/A
POIPU*           N/A     81 N/A N/A NE9G20      N/A
PRINCEVILLE*     N/A     73 N/A N/A E8G18       N/A
KOKOLE POINT*  NOT AVBL
MOLOAA DAIRY*    N/A     79  73  83 E3G12       N/A
WAIMEA HTS*    NOT AVBL
PUU OPAE*      NOT AVBL
PUU LUA*       NOT AVBL
MAKAHA RIDGE*  NOT AVBL
$$

HIZ005>011-302000-
OAHU-

CITY           SKY/WX    TMP DP  RH WIND       PRES   REMARKS
HONOLULU       PTSUNNY   82  67  60 E13G21    30.00R
KALAELOA       MOSUNNY   82  69  64 VRB6      30.01R
KANEOHE MCB    MOSUNNY   81  71  71 NE13      29.99R
WHEELER FIELD  FAIR      77  71  82 VRB5      30.03R
BELLOWS*       NOT AVBL
KAHUKU*        NOT AVBL
WHEELER*       NOT AVBL
WAIANAE HARBOR NOT AVBL
DILLINGHAM*      N/A     70  57  64 MISG        N/A
KAHUKU TRN*      N/A     82  77  83 W8G16       N/A  HX  91
KAWAILOA*        N/A     72  66  83 E9G18       N/A
KII*             N/A     79  72  78 E12G18      N/A
MAKUA RANGE*     N/A     73  63  68 W7          N/A
OAHU FOREST NW NOT AVBL
SCHOFIELD BRK*   N/A     81  72  74 MISG        N/A
SCHOFIELD S*   NOT AVBL
WAIANAE VLY*   NOT AVBL
KUAOKALA*      NOT AVBL
HONOULIUULI*   NOT AVBL
MOKUOLOE IS*   NOT AVBL
PALEHUA*       NOT AVBL
WAIAWA PHB*    NOT AVBL
$$

HIZ012>013-302000-
MOLOKAI-

CITY           SKY/WX    TMP DP  RH WIND       PRES   REMARKS
MOLOKAI AIRPT  MOSUNNY   80  69  69 NE14G22   30.01S
KALAUPAPA      NOT AVBL
MAKAPULAPAI*   NOT AVBL
MOLOKAI 1*     NOT AVBL
PUU ALII*      NOT AVBL
$$

HIZ016-302000-
KAHOOLAWE-

CITY           SKY/WX    TMP DP  RH WIND       PRES   REMARKS
KAHOOLAWE*     NOT AVBL
HAKIOAWA*      NOT AVBL
HONOKANAIA*      N/A     80  66  61 NW5G13    29.92S
KANELOA*         N/A     81  66  61 VRB6G13   30.05R
KEALIALALO*    NOT AVBL
LUA MAKIKA*    NOT AVBL
$$

HIZ014>015-302000-
LANAI-

CITY           SKY/WX    TMP DP  RH WIND       PRES   REMARKS
LANAI CITY     FAIR      78  66  66 NE12      30.04F
LANAI 1*       NOT AVBL
$$

HIZ017>028-302000-
MAUI-

CITY           SKY/WX    TMP DP  RH WIND       PRES   REMARKS
KAHULUI        MOSUNNY   83  68  60 NE18      30.00R
KAPALUA-W MAUI MOSUNNY   81  68  65 NE12      30.00
HANA AIRPORT     N/A     81  72  74 E10       30.05R
HANA*            N/A     81 N/A N/A NE9         N/A
HALEAKALA SUMM   N/A     52  23  32 NE3G24      N/A
MAALAEA BAY*   NOT AVBL
HALEAKALA*     NOT AVBL
KAUPO GAP*     NOT AVBL
KULA 1*          N/A     63  42  46 CALM        N/A
$$

HIZ023>026-302000-
BIG ISLAND OF HAWAII COAST AND LOWER SLOPES-

CITY           SKY/WX    TMP DP  RH WIND       PRES   REMARKS
KAILUA KONA    SUNNY     85  66  53 N10       29.95R
HILO           MOSUNNY   80  69  69 NW6       30.01R
HONOKAA*         N/A     77 N/A N/A VRB1        N/A
KAWAIHAE MWT*    N/A     84 N/A N/A NW6         N/A
KAWAIHAE*      NOT AVBL
SOUTH POINT*     N/A     77 N/A N/A N14G21      N/A
UPOLU AIRPORT*   N/A    N/A N/A N/A NE15G22     N/A
KAMUELA*       MOCLDY    73  63  68 NE24      30.08S
HAKALAU*         N/A     62  56  80 E5          N/A
KALOKO-HONOKO* NOT AVBL
PALI 2*          N/A     77  57  50 S12G21      N/A
KEALAKOMO*       N/A     84  63  48 VRB18G29    N/A
KAUPULEHU*     NOT AVBL
KAPAPALA*        N/A     78  64  61 SW3         N/A
LOWER KAHUKU*  NOT AVBL
PUHE CS*       NOT AVBL
PUHO CS*       NOT AVBL
PTA KEAMUKU*     N/A     72  59  64 CALM        N/A
WAIKOLOA*      NOT AVBL
$$

HIZ027>028-302000-
BIG ISLAND OF HAWAII INTERIOR AND SUMMMITS-

CITY           SKY/WX    TMP DP  RH WIND       PRES   REMARKS
BRADSHAW FIELD SUNNY     65  49  55 S8        30.30R
MK VISITOR CEN   N/A     57  39  51 S5          N/A
MAUNA KEA*       N/A     43  -9  11 NW15        N/A
MAUNA LOA*       N/A     55   0  10 MISG        N/A
MAUNA LOA 1*   NOT AVBL
PTA KIPUKA*      N/A     73  54  49 W3G10       N/A
PTA RANGE 17*    N/A     66  45  45 E7G18       N/A
PTA WEST*        N/A     70  54  56 NW9         N/A
NENE CABIN*    NOT AVBL
AHUMOA*        NOT AVBL
PTA PORTABLE*  NOT AVBL
PUU MALI*        N/A     63  50  63 NE17G24     N/A
$$

HIC003-302000-
NORTHWEST ISLANDS-

CITY           SKY/WX    TMP DP  RH WIND       PRES   REMARKS
MIDWAY ISLAND  SUNNY     81  73  78 SE10      30.16S
MIDWAY NOS*    NOT AVBL
FRENCH FRIGATE NOT AVBL
$$

PHZ110>124-180-302000-
BUOY REPORTS

STATION/POSITION TIME  TEMP    WIND        PRES    WAVE   SWELL
                       AIR SEA DIR/SP/G            HT/PER HT/DIR
                 (UTC) (F)     (DEG/KT/KT) (MB)    (FT/S) (FT/D)
BUOY 51001       1800   81 83   70/ 17/ 21 1017.0R
BUOY 51101       1850   75 79   50/ 21/ 25 1018.6R   8/ 8   5/ 80
BUOY 51100       NOT AVBL
BUOY 51002       1850   82 82   70/ 16/ 19 1014.9    8/ 9   5
BUOY 51003       1850   80 82   70/ 12/ 16 1014.6R   7/ 8   5/ 60
BUOY 51004       1850   79 81   90/ 10/ 12 1014.4R   6/ 8   5/ 70
BARBERS PT BUOY  NOT AVBL
WAIMEA BAY BUOY  1804      80                N/A     5/ 8   2/ 40
KAILUA BAY BUOY  1811      80                N/A     7/ 8   2/ 80
LANAI BUOY       1815      81                N/A     2/13   2/190
BARBERS PT 2     NOT AVBL
PAUWELA MAUI     1809      79                N/A     6/ 9   2/ 60
HILO             1812      80                N/A     7/ 9   2/ 70
KANEOHE BAY BUOY 1806      79                N/A     7/ 8   2/ 60
HANALEI KAUAI    NOT AVBL
KAHULUI HARBOR   1800   78 80   30/  9/ 13 1015.5R
HONOLULU HARBOR  1800   79 80  210/  2/  3 1016.1R
KILO NALU        NOT AVBL
HILO HARBOR      1800   72 80  250/  5/  7 1015.6R
MOKUOLOE         1800   79 81   90/ 10/ 12 1015.9R
NAWILIWILI       1800      81                N/A
WHOTS BUOY       NOT AVBL
BUOY 51028       NOT AVBL
$$

......................KEY........................................
  SKY/WX - SKY CONDITIONS/PRESENT WEATHER
  TMP    - TEMPERATURE IN FAHRENHEIT
  DWPT   - DEWPOINT IN FAHRENHEIT
  RH     - RELATIVE HUMIDITY IN PERCENT
  WIND   - DIRECTION AND SPEED /MPH FOR ISLANDS...KTS FOR BUOYS/
  PRES   - MEAN SEA LEVEL PRESSURE IN INCHES OF HG
  VSB    - VISIBILITY IN MILES
  HX     - HEAT INDEX
  WCI    - WIND CHILL INDEX
  VRB    - VARIABLE WIND DIRECTION
  N/A    - NOT AVAILABLE




USA.gov is the U.S. government's official web portal to all federal, state and local government web resources and services.